EW6202 Weather Reports


time (UTC)temp
C
wind
direction
speed
KPH
gust
KPH
rain 1hr
cm
rain 24hr
cm
rain mn
cm
humidity
%
barometer
mb
20260507221517 31 131 4.8 12.9 0.00 0.00 0.00 67 1011.8
20260507220013 32 92 3.2 11.3 0.00 0.00 0.00 65 1011.7
20260507214513 32 113 3.2 9.7 0.00 0.00 0.00 62 1011.6
20260507213016 32 58 4.8 14.5 0.00 0.00 0.00 68 1011.5
20260507211511 32 77 4.8 9.7 0.00 0.00 0.00 65 1011.5
20260507210009 33 107 3.2 11.3 0.00 0.00 0.00 48 1011.4
20260507204507 33 101 4.8 14.5 0.00 0.00 0.00 52 1011.4
20260507203008 34 121 3.2 12.9 0.00 0.00 0.00 52 1011.5
20260507201513 33 113 4.8 14.5 0.00 0.00 0.00 52 1011.7
20260507200009 33 99 9.7 14.5 0.00 0.00 0.00 52 1011.8
20260507194503 33 82 4.8 11.3 0.00 0.00 0.00 52 1011.8
20260507193059 33 116 6.4 16.1 0.00 0.00 0.00 52 1012.1
20260507191557 33 90 4.8 16.1 0.00 0.00 0.00 56 1012.3
20260507190057 33 215 6.4 16.1 0.00 0.00 0.00 57 1012.5
20260507184552 33 87 6.4 17.7 0.00 0.00 0.00 58 1012.7
20260507183051 33 82 9.7 19.3 0.00 0.00 0.00 59 1012.8
20260507181554 32 98 9.7 19.3 0.00 0.00 0.00 66 1012.9
20260507180045 32 164 8.0 19.3 0.00 0.00 0.00 62 1013.4
20260507174553 32 100 4.8 20.9 0.00 0.00 0.00 65 1013.7
20260507173059 32 158 9.7 19.3 0.00 0.00 0.00 62 1014.0
20260507171546 32 103 8.0 24.1 0.00 0.00 0.00 67 1014.2
20260507170036 31 129 6.4 19.3 0.00 0.00 0.00 66 1014.5
20260507164541 31 101 8.0 24.1 0.00 0.00 0.00 68 1014.7
20260507163031 31 91 8.0 20.9 0.00 0.00 0.00 67 1014.7
20260507161531 31 115 11.3 22.5 0.00 0.00 0.00 68 1014.8
20260507160031 31 79 9.7 22.5 0.00 0.00 0.00 70 1015.1
20260507154525 31 103 6.4 19.3 0.00 0.00 0.00 70 1015.1
20260507153021 30 161 6.4 16.1 0.00 0.00 0.00 71 1015.3
20260507151518 30 101 9.7 19.3 0.00 0.00 0.00 72 1015.4
20260507150014 30 117 4.8 17.7 0.00 0.00 0.00 74 1015.6
20260507144511 29 87 11.3 30.6 0.00 0.00 0.00 74 1015.7
20260507143015 28 123 12.9 20.9 0.00 0.00 0.00 75 1015.7
20260507141502 28 82 8.0 20.9 0.00 0.00 0.00 77 1015.7
20260507140059 28 113 9.7 20.9 0.00 0.00 0.00 77 1015.8
20260507134601 27 101 12.9 20.9 0.00 0.00 0.00 78 1015.8
20260507133050 27 156 9.7 17.7 0.00 0.00 0.00 79 1015.8
20260507131547 27 146 11.3 25.7 0.00 0.00 0.00 80 1015.7
20260507130042 26 101 11.3 27.4 0.00 0.00 0.00 82 1015.8
20260507124538 26 115 11.3 20.9 0.00 0.00 0.00 83 1016.0
20260507123039 26 125 11.3 22.5 0.00 0.00 0.00 84 1016.0
20260507121530 25 117 12.9 22.5 0.00 0.00 0.00 85 1015.8
20260507120039 25 101 8.0 22.5 0.00 0.00 0.00 87 1015.7
20260507114522 25 144 8.0 19.3 0.00 0.00 0.00 88 1015.7
20260507113035 23 143 3.2 11.3 0.00 0.00 0.00 91 1015.5
20260507111516 23 150 1.6 9.7 0.00 0.00 0.00 94 1015.3
20260507110012 22 163 0.0 8.0 0.00 0.00 0.00 95 1015.2
20260507104509 21 156 3.2 9.7 0.00 0.00 0.00 96 1014.9
20260507103008 21 116 1.6 9.7 0.00 0.00 0.00 96 1014.7
20260507101507 21 125 0.0 0.0 0.00 0.00 0.00 95 1014.7
20260507100003 21 125 0.0 0.0 0.00 0.00 0.00 95 1014.4
20260507094501 21 125 0.0 3.2 0.00 0.00 0.00 95 1014.2
20260507093100 21 125 0.0 3.2 0.00 0.00 0.00 94 1014.3
20260507091559 21 165 0.0 3.2 0.00 0.00 0.00 94 1014.2
20260507090057 22 165 1.6 3.2 0.00 0.00 0.00 93 1014.3
20260507084601 22 165 1.6 6.4 0.00 0.00 0.00 92 1014.2
20260507083051 22 165 3.2 11.3 0.00 0.00 0.00 92 1014.1
20260507081549 23 193 3.2 12.9 0.00 0.00 0.00 92 1014.1
20260507080046 23 145 6.4 16.1 0.00 0.00 0.00 92 1014.2
20260507074548 23 178 4.8 19.3 0.00 0.00 0.00 92 1014.2
20260507073054 23 154 4.8 14.5 0.00 0.00 0.00 92 1014.3
20260507071541 23 150 4.8 12.9 0.00 0.00 0.00 91 1014.3
20260507070042 23 135 4.8 12.9 0.00 0.00 0.00 91 1014.5
20260507064544 23 174 4.8 14.5 0.00 0.00 0.00 90 1014.6
20260507063045 23 130 8.0 17.7 0.00 0.00 0.00 90 1014.6
20260507061538 24 101 8.0 17.7 0.00 0.00 0.00 89 1014.7
20260507060032 24 99 8.0 17.7 0.00 0.00 0.00 88 1014.9
20260507054529 24 146 8.0 16.1 0.00 0.00 0.00 87 1015.1
20260507053033 24 138 4.8 17.7 0.00 0.00 0.00 87 1015.1
20260507051527 25 110 6.4 14.5 0.00 0.00 0.00 86 1015.3
20260507050024 25 124 6.4 16.1 0.00 0.00 0.00 85 1015.5
20260507044523 25 155 8.0 14.5 0.00 0.00 0.00 84 1015.6
20260507043018 25 163 4.8 14.5 0.00 0.00 0.00 83 1015.7
20260507041514 24 144 6.4 14.5 0.00 0.00 0.00 85 1015.8
20260507040010 23 144 3.2 4.8 0.00 0.00 0.00 87 1016.0
20260507034511 23 144 1.6 4.8 0.00 0.00 0.00 86 1016.1
20260507033009 23 144 0.0 0.0 0.00 0.00 0.00 85 1016.1
20260507031508 23 144 0.0 0.0 0.00 0.00 0.00 85 1016.1
20260507030008 23 144 0.0 0.0 0.00 0.00 0.00 86 1016.2
20260507024508 23 144 0.0 0.0 0.00 0.00 0.00 85 1016.2
20260507023006 23 144 0.0 0.0 0.00 0.00 0.00 85 1016.2
20260507021505 25 144 1.6 3.2 0.00 0.00 0.00 82 1016.1
20260507020003 25 144 0.0 0.0 0.00 0.00 0.00 80 1016.0
20260507014503 26 144 0.0 3.2 0.00 0.00 0.00 75 1015.7
20260507013006 26 144 3.2 6.4 0.00 0.00 0.00 72 1015.6
20260507011500 27 138 1.6 6.4 0.00 0.00 0.00 72 1015.5
20260507010059 27 156 0.0 3.2 0.00 0.00 0.00 72 1015.4
20260507004559 27 156 1.6 4.8 0.00 0.00 0.00 71 1015.3
20260507003059 27 156 0.0 4.8 0.00 0.00 0.00 68 1015.1
20260507001611 28 92 4.8 11.3 0.00 0.00 0.00 67 1015.0
20260507000057 28 175 6.4 11.3 0.00 0.00 0.00 68 1014.8
20260506234602 28 178 1.6 8.0 0.00 0.00 0.00 69 1014.6
20260506233056 28 147 3.2 11.3 0.00 0.00 0.00 68 1014.2
20260506231554 29 140 3.2 14.5 0.00 0.00 0.00 66 1014.0
20260506230051 30 154 3.2 11.3 0.00 0.00 0.00 65 1013.8
20260506224605 30 120 6.4 16.1 0.00 0.00 0.00 63 1013.6
20260506223054 31 70 9.7 17.7 0.00 0.00 0.00 62 1013.4